Weather History for KTBN - February, 2013

Change the Weather History Date:

Thursday, February 28, 2013

  Actual Average Record
Temperature  
Mean Temperature 30 °F -  
Max Temperature 32 °F 46 °F 77 °F (2006)
Min Temperature 29 °F 31 °F 17 °F (2009)
Degree Days  
Heating Degree Days 34    
Moisture  
Dew Point 27 °F    
Average Humidity 89    
Maximum Humidity 100    
Minimum Humidity 80    
Precipitation  
Precipitation 0.00 in - - ()
Sea Level Pressure  
Sea Level Pressure 30.10 in    
Wind  
Wind Speed 8 mph (WNW)    
Max Wind Speed 13 mph    
Max Gust Speed 18 mph    
Visibility 8 miles    
Events Snow    
Averages and records for this station are not official NWS values.
T = Trace of Precipitation, MM = Missing Value Source: NWS Daily Summary

Daily Weather History Graph

Daily Weather History Graph

Search for Another Location

Airport or City:

Trip Planner

Search our weather history database for the weather conditions in past years. The results will help you decide how hot, cold, wet, or windy it might be!

Date:

Astronomy

Feb. 28, 2013 Rise Set
Actual Time 6:41 AM CST 6:01 PM CST
Civil Twilight 6:14 AM CST 6:27 PM CST
Nautical Twilight 5:44 AM CST 6:58 PM CST
Astronomical Twilight 5:14 AM CST 7:28 PM CST
Moon 9:24 PM CST (2/28) 7:55 AM CST (2/28)
Length of Visible Light 12h 13m
Length of Day
11h 20m
Waning Gibbous, 90% of the Moon is Illuminated
Feb 28
Waning Gibbous
Mar 4
Last Quarter
Mar 11
New
Mar 19
First Quarter
Mar 27
Full

Hourly Weather History & Observations

Time (CST) Temp. Windchill Dew Point Humidity Pressure Visibility Wind Dir Wind Speed Gust Speed Precip Events Conditions
12:55 AM 30.9 °F 23.5 °F 27.0 °F 85% 29.97 in 10.0 mi NW 8.1 mph - N/A   Overcast
1:36 AM 30.2 °F 22.6 °F 26.6 °F 86% 29.97 in 10.0 mi WNW 8.1 mph 17.3 mph N/A   Overcast
1:42 AM 30.2 °F 22.6 °F 26.6 °F 86% 29.97 in 10.0 mi NW 8.1 mph - N/A   Overcast
1:55 AM 30.7 °F 21.4 °F 26.4 °F 84% 29.97 in 10.0 mi NW 11.5 mph 17.3 mph N/A   Overcast
2:08 AM 30.2 °F 21.9 °F 26.6 °F 86% 29.98 in 10.0 mi NW 9.2 mph 18.4 mph N/A   Scattered Clouds
2:54 AM 30.2 °F 23.4 °F 26.6 °F 86% 29.99 in 10.0 mi WNW 6.9 mph - N/A   Overcast
2:55 AM 30.4 °F 23.6 °F 25.9 °F 83% 29.99 in 10.0 mi WNW 6.9 mph - N/A   Overcast
3:16 AM 30.2 °F 22.6 °F 26.6 °F 86% 29.99 in 10.0 mi WNW 8.1 mph - N/A   Overcast
3:31 AM 30.2 °F 21.9 °F 26.6 °F 86% 29.99 in 10.0 mi NW 9.2 mph - N/A   Overcast
3:33 AM 30.2 °F 24.3 °F 26.6 °F 86% 29.99 in 10.0 mi WNW 5.8 mph - N/A   Overcast
3:43 AM 30.2 °F 23.4 °F 26.6 °F 86% 29.99 in 10.0 mi WNW 6.9 mph - N/A   Overcast
3:55 AM 31.1 °F 22.4 °F 26.2 °F 82% 29.99 in 10.0 mi WNW 10.4 mph - N/A   Overcast
4:08 AM 32.0 °F 22.5 °F 26.6 °F 80% 29.99 in 10.0 mi WNW 12.7 mph - N/A   Overcast
4:22 AM 32.0 °F 23.6 °F 26.6 °F 80% 29.99 in 10.0 mi NW 10.4 mph - N/A   Overcast
4:55 AM 31.1 °F 23.7 °F 25.9 °F 81% 30.01 in 10.0 mi WNW 8.1 mph - N/A   Overcast
5:04 AM 30.2 °F 22.6 °F 26.6 °F 86% 30.01 in 10.0 mi WNW 8.1 mph - N/A   Overcast
5:10 AM 30.2 °F 20.8 °F 26.6 °F 86% 30.01 in 10.0 mi WNW 11.5 mph - N/A   Overcast
5:55 AM 30.6 °F 22.4 °F 26.1 °F 83% 30.03 in 10.0 mi WNW 9.2 mph - N/A   Overcast
6:55 AM 30.0 °F 20.5 °F 26.1 °F 85% 30.05 in 10.0 mi WNW 11.5 mph - N/A   Overcast
7:55 AM 30.0 °F 21.7 °F 26.2 °F 86% 30.07 in 10.0 mi WNW 9.2 mph - N/A   Overcast
8:55 AM 29.7 °F 20.7 °F 25.9 °F 86% 30.09 in 10.0 mi NW 10.4 mph - N/A   Overcast
9:34 AM 30.2 °F 23.4 °F 26.6 °F 86% 30.10 in 10.0 mi NW 6.9 mph - N/A   Overcast
9:55 AM 30.0 °F 21.7 °F 26.6 °F 87% 30.11 in 10.0 mi WNW 9.2 mph - 0.00 in   Overcast
9:56 AM 30.2 °F 21.9 °F 26.6 °F 86% 30.11 in 10.0 mi WNW 9.2 mph - N/A   Overcast
10:55 AM 29.8 °F 19.8 °F 25.3 °F 83% 30.12 in 10.0 mi WNW 12.7 mph - N/A   Overcast
11:55 AM 30.2 °F 21.9 °F 25.3 °F 82% 30.12 in 10.0 mi NW 9.2 mph - N/A   Overcast
12:55 PM 30.4 °F 21.0 °F 25.9 °F 83% 30.12 in 10.0 mi West 11.5 mph - N/A   Overcast
1:52 PM 30.2 °F 21.9 °F 26.6 °F 86% 30.12 in 10.0 mi WNW 9.2 mph - N/A   Overcast
1:55 PM 30.2 °F 21.9 °F 26.2 °F 85% 30.12 in 10.0 mi West 9.2 mph - 0.00 in   Overcast
2:55 PM 31.3 °F 24.7 °F 27.0 °F 84% 30.13 in 6.0 mi West 6.9 mph - 0.00 in Snow Light Snow
3:55 PM 31.5 °F 24.2 °F 28.4 °F 88% 30.13 in 5.0 mi West 8.1 mph - 0.00 in Snow Light Snow
4:25 PM 30.2 °F 22.6 °F 28.4 °F 93% 30.13 in 2.5 mi WNW 8.1 mph - N/A Snow Light Snow
4:26 PM 30.2 °F 22.6 °F 28.4 °F 93% 30.13 in 3.0 mi WNW 8.1 mph - N/A Snow Light Snow
4:27 PM 30.2 °F 22.6 °F 28.4 °F 93% 30.13 in 2.5 mi WNW 8.1 mph - N/A Snow Light Snow
4:28 PM 30.2 °F 22.6 °F 28.4 °F 93% 30.13 in 3.0 mi WNW 8.1 mph - N/A Snow Light Snow
4:44 PM 30.2 °F 21.9 °F 28.4 °F 93% 30.13 in 4.0 mi West 9.2 mph - N/A Snow Light Snow
4:52 PM 30.2 °F 22.6 °F 28.4 °F 93% 30.13 in 4.0 mi WNW 8.1 mph - N/A Snow Light Snow
4:55 PM 30.6 °F 23.1 °F 29.3 °F 95% 30.13 in 4.0 mi West 8.1 mph - 0.00 in Snow Light Snow
5:02 PM 30.2 °F 23.4 °F 28.4 °F 93% 30.13 in 4.0 mi WNW 6.9 mph - N/A Snow Light Snow
5:12 PM 30.2 °F 22.6 °F 28.4 °F 93% 30.13 in 4.0 mi WNW 8.1 mph - N/A Snow Light Snow
5:26 PM 30.2 °F 23.4 °F 28.4 °F 93% 30.14 in 5.0 mi West 6.9 mph - N/A   Overcast
5:27 PM 30.2 °F 24.3 °F 28.4 °F 93% 30.14 in 5.0 mi West 5.8 mph - N/A   Overcast
5:32 PM 30.2 °F 23.4 °F 30.2 °F 100% 30.14 in 5.0 mi West 6.9 mph - N/A Snow Light Snow
5:44 PM 30.2 °F 24.3 °F 30.2 °F 100% 30.14 in 5.0 mi WNW 5.8 mph - N/A Snow Light Snow
5:55 PM 30.2 °F 25.4 °F 29.5 °F 97% 30.14 in 5.0 mi WNW 4.6 mph - 0.00 in Snow Light Snow
5:57 PM 30.2 °F 24.3 °F 30.2 °F 100% 30.14 in 5.0 mi WNW 5.8 mph - N/A   Overcast
5:58 PM 30.2 °F 23.4 °F 30.2 °F 100% 30.14 in 5.0 mi WNW 6.9 mph - N/A   Overcast
5:59 PM 30.2 °F 23.4 °F 30.2 °F 100% 30.14 in 5.0 mi WNW 6.9 mph - N/A   Overcast
6:02 PM 30.2 °F 24.3 °F 30.2 °F 100% 30.14 in 6.0 mi WNW 5.8 mph - N/A   Overcast
6:03 PM 30.2 °F 24.3 °F 30.2 °F 100% 30.14 in 7.0 mi WNW 5.8 mph - N/A   Overcast
6:06 PM 30.2 °F 24.3 °F 30.2 °F 100% 30.14 in 8.0 mi WNW 5.8 mph - N/A   Overcast
6:09 PM 30.2 °F 25.4 °F 28.4 °F 93% 30.14 in 9.0 mi WNW 4.6 mph - N/A   Overcast
6:10 PM 30.2 °F 25.4 °F 28.4 °F 93% 30.14 in 9.0 mi WNW 4.6 mph - N/A   Overcast
6:11 PM 30.2 °F 24.3 °F 28.4 °F 93% 30.14 in 10.0 mi West 5.8 mph - N/A   Overcast
6:52 PM 30.2 °F 23.4 °F 28.4 °F 93% 30.15 in 10.0 mi WNW 6.9 mph - N/A Snow Light Snow
6:55 PM 30.6 °F 24.7 °F 27.7 °F 89% 30.15 in 10.0 mi WNW 5.8 mph - 0.00 in Snow Light Snow
7:55 PM 30.4 °F 22.2 °F 27.1 °F 88% 30.15 in 10.0 mi WNW 9.2 mph - 0.00 in Snow Light Snow
8:39 PM 30.2 °F 24.3 °F 28.4 °F 93% 30.16 in 9.0 mi West 5.8 mph - N/A   Overcast
8:48 PM 30.2 °F 23.4 °F 26.6 °F 86% 30.16 in 10.0 mi WNW 6.9 mph - N/A   Overcast
8:55 PM 29.8 °F 23.0 °F 27.0 °F 89% 30.16 in 10.0 mi WNW 6.9 mph - 0.00 in   Overcast
8:59 PM 30.2 °F 23.4 °F 26.6 °F 86% 30.16 in 10.0 mi WNW 6.9 mph - N/A   Overcast
9:25 PM 30.2 °F 23.4 °F 26.6 °F 86% 30.16 in 10.0 mi WNW 6.9 mph - N/A   Overcast
9:28 PM 30.2 °F 23.4 °F 26.6 °F 86% 30.16 in 10.0 mi WNW 6.9 mph - N/A   Overcast
9:30 PM 30.2 °F 24.3 °F 26.6 °F 86% 30.16 in 10.0 mi WNW 5.8 mph - N/A   Overcast
9:36 PM 30.2 °F 22.6 °F 26.6 °F 86% 30.16 in 10.0 mi WNW 8.1 mph - N/A   Overcast
9:38 PM 30.2 °F 23.4 °F 26.6 °F 86% 30.16 in 10.0 mi WNW 6.9 mph - N/A   Overcast
9:55 PM 29.7 °F 22.8 °F 26.2 °F 87% 30.16 in 10.0 mi WNW 6.9 mph - 0.00 in   Overcast
10:13 PM 30.2 °F 24.3 °F 26.6 °F 86% 30.15 in 10.0 mi WNW 5.8 mph - N/A   Overcast
10:55 PM 29.8 °F 23.9 °F 25.9 °F 85% 30.15 in 10.0 mi WNW 5.8 mph - N/A   Overcast
11:09 PM 30.2 °F 22.6 °F 26.6 °F 86% 30.15 in 10.0 mi WNW 8.1 mph - N/A   Overcast
11:48 PM 30.2 °F 22.6 °F 26.6 °F 86% 30.14 in 10.0 mi WNW 8.1 mph - N/A   Overcast